Weather Roundup
Issued by NWS Springfield, MO

Home | Current Version | Previous Version | Text Only | Print | Product List | Glossary On
Versions: 1 2 3 4 5 6 7 8 9 10 11 12 13 14 15 16 17 18 19 20 21 22 23 24 25 26 27 28 29 30 31 32 33 34 35 36 37 38 39 40 41 42 43 44 45 46 47 48 49 50
000
NZUS99 KSGF 060159
HRRSGF

HOURLY WEATHER
NATIONAL WEATHER SERVICE SPRINGFIELD MO
900 PM CDT SUN JUL 05 2015

......SGF CWA......

CITY           SKY/WX    TMP DP  RH WIND       PRES   REMARKS
SPRINGFIELD    PTCLDY    72  68  87 SE6       29.99R
JOPLIN         MOCLDY    78  66  66 S16       29.95S
WEST PLAINS    CLEAR     77  71  82 SE5       30.05S
ROLLA          CLEAR     76  71  85 SE7       30.00S
OSAGE BEACH    CLEAR     77  66  69 SE3       29.97S
BRANSON        MOCLDY    72  68  88 S7        30.03S

......SURROUNDING SGF CWA......

CITY           SKY/WX    TMP DP  RH WIND       PRES   REMARKS
CHANUTE        CLEAR     84  74  71 S10       29.91R HX  91
PARSONS        PTCLDY    86  74  67 S7        29.92S HX  94
COFFEYVILLE    CLEAR     85  74  69 S10       29.90S HX  92
EMPORIA        CLEAR     85  71  63 SE13      29.87R HX  90
SILOAM SPRINGS MOCLDY    72  66  83 S5        30.00S
HARRISON AR    CLOUDY    70  69  97 SE9       30.04S
NEAR YELLVILLE   N/A     75  72  88 CALM      30.00R

......KANSAS AND MISSOURI......

CITY           SKY/WX    TMP DP  RH WIND       PRES   REMARKS
KANSAS CTY INT PTCLDY    83  74  74 S13       29.89S
DOWNTOWN KC    CLEAR     87  74  64 S9        29.88S HX  95
COLUMBIA       CLEAR     78  71  79 SE6       29.97F
SEDALIA        CLEAR     79  68  69 S10       29.96S
ST JOSEPH      PTCLDY    84  74  71 SE10      29.87R HX  91
ST LOUIS       MOCLDY    83  66  56 S10       30.01R HAZE
SPIRIT OF STL  PTCLDY    79  69  71 SE5       29.99R HAZE
KIRKSVILLE     PTCLDY    76  68  76 SE8       29.95S
WICHITA        PTCLDY    90  67  46 S15       29.85R HX  93
TOPEKA         CLEAR     85  72  65 SE9       29.86R HX  91
OLATHE         CLEAR     82  74  76 S12       29.90S

......TENNESSEE......

CITY           SKY/WX    TMP DP  RH WIND       PRES   REMARKS
MEMPHIS        PTCLDY    77  71  82 SW6       30.07R
NASHVILLE      PTCLDY    77  70  79 CALM      30.07R

......ARKANSAS.......

CITY           SKY/WX    TMP DP  RH WIND       PRES   REMARKS
FAYETTEVILLE   CLOUDY    73  66  78 S9        30.01R
FT SMITH       CLOUDY    73  69  87 SW9       29.98F THUNDER
LITTLE ROCK    MOCLDY    75  69  81 S7        30.06R

......OKLAHOMA.......

CITY           SKY/WX    TMP DP  RH WIND       PRES   REMARKS
TULSA          PTCLDY    88  72  58 S14       29.92R HX  94
PONCA CITY     CLEAR     88  71  57 S9G17     29.88R HX  94
MCALESTER      CLEAR     83  72  69 SE5       29.97R
OKLAHOMA CITY  MOCLDY    82  71  69 S10       29.92R

......IOWA............

CITY           SKY/WX    TMP DP  RH WIND       PRES   REMARKS
DES MOINES     PTCLDY    81  69  67 SE13      29.87F
QUAD CITIES    PTCLDY    74  66  76 SE7       29.97S

......ILLINOIS........

CITY           SKY/WX    TMP DP  RH WIND       PRES   REMARKS
QUINCY         PTCLDY    75  69  81 SE7       29.97F HAZE
CHICAGO        CLEAR     74  60  61 S7        30.01S



USA.gov is the U.S. government's official web portal to all federal, state and local government web resources and services.